When you browse on this site, cookies collect data to enhance your experience and personalize the content and advertising you see.
Visit our Privacy Policy to learn more. By continuing to use the site, you agree to this use of cookies and data.
  • En España
  • Lista de países
  • Para 7 días
  • Temperatura del agua
  • Mapa Satelital
  • El tiempo en el mapa
  • Informadores
  • user-avatar
    Iniciar sesión

    Tiempo cada hora Barybino

    Hoy, 17 Enero, Jueves

    Tiempo Temperatura Precipitaciones Viento Presión Humedad
    00:00 -10°C° 0 mm 4 mps 734 mmHg 92%
    01:00 -10°C° 0 mm 4 mps 735 mmHg 93%
    02:00 -10°C° 0 mm 4 mps 735 mmHg 93%
    03:00 -9°C° 0 mm 3 mps 735 mmHg 95%
    04:00 -10°C° 0 mm 4 mps 735 mmHg 94%
    05:00 -9°C° 0 mm 4 mps 736 mmHg 93%
    06:00 -10°C° 0 mm 5 mps 736 mmHg 92%
    07:00 -11°C° 0 mm 5 mps 736 mmHg 93%
    08:00 -11°C° 0 mm 5 mps 736 mmHg 93%
    09:00 -12°C° 0 mm 5 mps 737 mmHg 94%
    10:00 -12°C° 0 mm 6 mps 736 mmHg 93%
    11:00 -11°C° 0 mm 6 mps 736 mmHg 92%
    12:00 -12°C° 0 mm 7 mps 736 mmHg 91%
    13:00 -11°C° 0.1 mm 7 mps 736 mmHg 90%
    14:00 -10°C° 0.1 mm 8 mps 736 mmHg 90%
    15:00 -10°C° 0.1 mm 8 mps 735 mmHg 90%
    16:00 -8°C° 0.4 mm 8 mps 735 mmHg 90%
    17:00 -9°C° 0.4 mm 9 mps 734 mmHg 91%
    18:00 -9°C° 0.4 mm 9 mps 734 mmHg 91%
    19:00 -8°C° 0.1 mm 9 mps 733 mmHg 90%
    20:00 -8°C° 0.1 mm 9 mps 733 mmHg 89%
    21:00 -6°C° 0.1 mm 9 mps 732 mmHg 88%
    22:00 -5°C° 0 mm 9 mps 732 mmHg 87%
    23:00 -5°C° 0 mm 9 mps 732 mmHg 87%

    Mañana, 18 Enero, Viernes

    Tiempo Temperatura Precipitaciones Viento Presión Humedad
    00:00 -5°C° 0 mm 9 mps 732 mmHg 86%
    01:00 -4°C° 0 mm 9 mps 732 mmHg 87%
    02:00 -4°C° 0 mm 9 mps 732 mmHg 87%
    03:00 -4°C° 0 mm 9 mps 733 mmHg 88%
    04:00 -4°C° 0.1 mm 9 mps 733 mmHg 88%
    05:00 -2°C° 0.1 mm 8 mps 733 mmHg 88%
    06:00 -2°C° 0.1 mm 8 mps 734 mmHg 89%
    07:00 -2°C° 0 mm 7 mps 734 mmHg 89%
    08:00 -3°C° 0 mm 7 mps 735 mmHg 90%
    09:00 -3°C° 0 mm 6 mps 735 mmHg 90%
    10:00 -3°C° 0 mm 6 mps 735 mmHg 91%
    11:00 -2°C° 0 mm 6 mps 736 mmHg 91%
    12:00 -2°C° 0 mm 6 mps 736 mmHg 91%
    13:00 -2°C° 0 mm 6 mps 736 mmHg 91%
    14:00 -2°C° 0 mm 6 mps 736 mmHg 90%
    15:00 -2°C° 0 mm 6 mps 736 mmHg 90%
    16:00 -2°C° 0 mm 6 mps 736 mmHg 91%
    17:00 -3°C° 0 mm 6 mps 735 mmHg 91%
    18:00 -3°C° 0 mm 7 mps 735 mmHg 92%
    19:00 -3°C° 0.2 mm 7 mps 735 mmHg 92%
    20:00 -3°C° 0.2 mm 7 mps 734 mmHg 92%
    21:00 -3°C° 0.2 mm 7 mps 734 mmHg 92%
    22:00 -4°C° 0.3 mm 8 mps 734 mmHg 91%
    23:00 -2°C° 0.3 mm 8 mps 734 mmHg 90%

    Pasado mañana, 19 Enero, Sábado

    Tiempo Temperatura Precipitaciones Viento Presión Humedad
    00:00 -2°C° 0.3 mm 8 mps 733 mmHg 89%
    01:00 -4°C° 0.1 mm 8 mps 734 mmHg 87%
    02:00 -3°C° 0.1 mm 7 mps 735 mmHg 86%
    03:00 -3°C° 0.1 mm 7 mps 735 mmHg 84%
    04:00 -4°C° 0 mm 6 mps 736 mmHg 86%
    05:00 -5°C° 0 mm 6 mps 737 mmHg 89%
    06:00 -6°C° 0 mm 5 mps 737 mmHg 91%
    07:00 -8°C° 0 mm 4 mps 738 mmHg 91%
    08:00 -11°C° 0 mm 4 mps 738 mmHg 91%
    09:00 -13°C° 0 mm 3 mps 739 mmHg 91%
    10:00 -12°C° 0 mm 3 mps 739 mmHg 92%
    11:00 -12°C° 0 mm 4 mps 740 mmHg 92%
    12:00 -11°C° 0 mm 4 mps 741 mmHg 92%
    13:00 -11°C° 0 mm 4 mps 741 mmHg 93%
    14:00 -10°C° 0 mm 4 mps 741 mmHg 93%
    15:00 -10°C° 0 mm 4 mps 741 mmHg 93%
    16:00 -10°C° 0 mm 4 mps 741 mmHg 92%
    17:00 -11°C° 0 mm 5 mps 741 mmHg 91%
    18:00 -12°C° 0 mm 5 mps 742 mmHg 89%
    19:00 -12°C° 0 mm 5 mps 742 mmHg 90%
    20:00 -12°C° 0 mm 5 mps 742 mmHg 91%
    21:00 -12°C° 0 mm 5 mps 742 mmHg 92%
    22:00 -12°C° 0 mm 5 mps 743 mmHg 92%
    23:00 -12°C° 0 mm 5 mps 743 mmHg 92%

    20 Enero, Domingo

    Tiempo Temperatura Precipitaciones Viento Presión Humedad
    00:00 -11°C° 0 mm 4 mps 743 mmHg 92%
    01:00 -11°C° 0 mm 4 mps 743 mmHg 92%
    02:00 -11°C° 0 mm 4 mps 744 mmHg 92%
    03:00 -11°C° 0 mm 4 mps 744 mmHg 92%
    04:00 -10°C° 0 mm 4 mps 744 mmHg 92%
    05:00 -9°C° 0 mm 4 mps 744 mmHg 91%
    06:00 -9°C° 0 mm 4 mps 744 mmHg 90%
    07:00 -10°C° 0 mm 5 mps 744 mmHg 91%
    08:00 -10°C° 0 mm 5 mps 744 mmHg 92%
    09:00 -11°C° 0 mm 5 mps 745 mmHg 93%
    10:00 -10°C° 0 mm 5 mps 745 mmHg 91%
    11:00 -10°C° 0 mm 6 mps 745 mmHg 90%
    12:00 -9°C° 0 mm 6 mps 744 mmHg 88%
    13:00 -9°C° 0 mm 6 mps 744 mmHg 88%
    14:00 -9°C° 0 mm 6 mps 744 mmHg 87%
    15:00 -9°C° 0 mm 7 mps 743 mmHg 87%
    16:00 -9°C° 0 mm 7 mps 743 mmHg 88%
    17:00 -9°C° 0 mm 7 mps 743 mmHg 89%
    18:00 -9°C° 0 mm 7 mps 743 mmHg 90%
    19:00 -11°C° 0 mm 7 mps 743 mmHg 90%
    20:00 -11°C° 0 mm 7 mps 743 mmHg 90%
    21:00 -11°C° 0 mm 7 mps 742 mmHg 90%
    22:00 -12°C° 0 mm 7 mps 742 mmHg 87%
    23:00 -13°C° 0 mm 7 mps 742 mmHg 85%

    21 Enero, Lunes

    Tiempo Temperatura Precipitaciones Viento Presión Humedad
    00:00 -14°C° 0 mm 6 mps 742 mmHg 83%
    01:00 -15°C° 0 mm 6 mps 742 mmHg 84%
    02:00 -15°C° 0 mm 6 mps 742 mmHg 84%
    03:00 -16°C° 0 mm 6 mps 742 mmHg 85%
    04:00 -16°C° 0 mm 6 mps 741 mmHg 87%
    05:00 -17°C° 0 mm 5 mps 741 mmHg 89%
    06:00 -17°C° 0 mm 5 mps 741 mmHg 92%
    07:00 -17°C° 0.1 mm 5 mps 740 mmHg 92%
    08:00 -15°C° 0.1 mm 5 mps 740 mmHg 93%
    09:00 -14°C° 0.1 mm 5 mps 740 mmHg 93%
    10:00 -13°C° 0.1 mm 5 mps 740 mmHg 93%
    11:00 -12°C° 0.1 mm 4 mps 740 mmHg 92%
    12:00 -11°C° 0.1 mm 4 mps 740 mmHg 91%
    13:00 -11°C° 0.1 mm 4 mps 740 mmHg 92%
    14:00 -11°C° 0.1 mm 4 mps 739 mmHg 92%
    15:00 -10°C° 0.1 mm 3 mps 739 mmHg 92%
    16:00 -11°C° 0.1 mm 4 mps 740 mmHg 93%
    17:00 -11°C° 0.1 mm 4 mps 740 mmHg 94%
    18:00 -11°C° 0.1 mm 4 mps 740 mmHg 94%
    19:00 -12°C° 0 mm 4 mps 740 mmHg 94%
    20:00 -14°C° 0 mm 4 mps 741 mmHg 93%
    21:00 -15°C° 0 mm 5 mps 741 mmHg 93%
    22:00 -16°C° 0 mm 4 mps 741 mmHg 94%
    23:00 -17°C° 0 mm 4 mps 741 mmHg 94%

    22 Enero, Martes

    Tiempo Temperatura Precipitaciones Viento Presión Humedad
    00:00 -18°C° 0 mm 4 mps 741 mmHg 95%
    01:00 -19°C° 0 mm 4 mps 742 mmHg 96%
    02:00 -19°C° 0 mm 4 mps 742 mmHg 97%
    03:00 -20°C° 0 mm 4 mps 742 mmHg 97%
    04:00 -19°C° 0 mm 3 mps 742 mmHg 98%
    05:00 -21°C° 0 mm 3 mps 742 mmHg 98%
    06:00 -21°C° 0 mm 3 mps 742 mmHg 98%
    07:00 -19°C° 0 mm 3 mps 742 mmHg 97%
    08:00 -19°C° 0 mm 4 mps 743 mmHg 96%
    09:00 -17°C° 0 mm 4 mps 743 mmHg 95%
    10:00 -16°C° 0 mm 4 mps 743 mmHg 93%
    11:00 -15°C° 0 mm 5 mps 743 mmHg 92%
    12:00 -13°C° 0 mm 5 mps 743 mmHg 91%
    13:00 -13°C° 0 mm 5 mps 743 mmHg 90%
    14:00 -13°C° 0 mm 5 mps 743 mmHg 90%
    15:00 -13°C° 0 mm 5 mps 743 mmHg 89%
    16:00 -14°C° 0 mm 5 mps 743 mmHg 91%
    17:00 -14°C° 0 mm 4 mps 743 mmHg 93%
    18:00 -15°C° 0 mm 4 mps 743 mmHg 94%
    19:00 -15°C° 0 mm 3 mps 744 mmHg 95%
    20:00 -16°C° 0 mm 3 mps 744 mmHg 95%
    21:00 -16°C° 0 mm 3 mps 744 mmHg 95%
    22:00 -17°C° 0 mm 3 mps 744 mmHg 96%
    23:00 -17°C° 0 mm 3 mps 745 mmHg 96%
    Mostrar más